Weather Service Report


940 
ASUS41 KGYX 260905
RWRGYX
WEATHER ROUNDUP FOR MAINE AND NEW HAMPSHIRE
NATIONAL WEATHER SERVICE GRAY ME
500 AM EDT TUE JUL 26 2016

MEZ002-005-006-010-012-015-018-020-021-024-026-027-029-261000-
MAINE
  
CITY           SKY/WX    TMP DP  RH WIND       PRES   REMARKS
PORTLAND       FOG       67  66  97 CALM      29.74R VSB 1/2          
SANFORD          N/A     66  66 100 W6        29.75R                  
BAR HARBOR     FOG       67  67 100 S6        29.73R VSB 1/2          
WISCASSET      FOG       68  67  96 CALM      29.74S VSB 1/2          
ROCKLAND       CLOUDY    66  66 100 CALM      29.72S FOG              
FRYEBURG       NOT AVBL                                               
LEWISTONAUBURN FOG       63  63 100 CALM      29.74S VSB 1            
AUGUSTA        FOG       66  65  96 CALM      29.73R VSB 1/4          
WATERVILLE     FOG       65  65 100 SW5       29.70S VSB 1/4          
BANGOR         FOG       69  67  93 SW5       29.72S VSB 1/2          
GREENVILLE       N/A     62  58  86 E3        29.72F                  
MILLINOCKET    CLOUDY    65  63  93 CALM      29.72S                  
HOULTON        CLOUDY    65  64  97 SE8       29.69S                  
PRESQUE ISLE   CLOUDY    64  63  96 SE6       29.70F                  
FRENCHVILLE    LGT RAIN  64  62  93 SE9       29.69S VSB 1/4          
CARIBOU        CLOUDY    65  63  93 S6        29.69S                  
$$

NHZ002-005-008-009-011-012-014-261000-
NEW HAMPSHIRE
  
CITY           SKY/WX    TMP DP  RH WIND       PRES   REMARKS
PORTSMOUTH     CLEAR     71  69  94 W6        29.74R                  
ROCHESTER      CLEAR     70  66  87 VRB6      29.75R                  
NASHUA         PTCLDY    73  67  81 CALM      29.79R                  
MANCHESTER     CLEAR     75  66  73 CALM      29.77R                  
CONCORD        CLEAR     67  64  90 CALM      29.77R                  
LACONIA        CLEAR     71  67  87 S6        29.78R                  
PLYMOUTH       FAIR      65  64  97 CALM      29.77R                  
BERLIN         CLEAR     62  59  90 CALM      29.78R FOG              
WHITEFIELD     PTCLDY    64  61  90 CALM      29.79R                  
JAFFREY        CLEAR     70  64  81 SW7       29.84R                  
KEENE          CLEAR     67  66  97 CALM      29.83R                  
LEBANON        CLEAR     65  62  90 CALM      29.79R                  
MT WASHINGTON  DRZL/FOG  54  54 100 NW51G58     N/A  VSB 0            
$$

VTZ005-007-008-261000-
VERMONT
  
CITY           SKY/WX    TMP DP  RH WIND       PRES   REMARKS
ST JOHNSBURY     N/A     65  63  93 MISG      29.76R                  
MONTPELIER     FAIR      70  61  73 W6        29.84R                  
BURLINGTON     FAIR      74  59  59 SW3       29.77R                  
$$

MAZ007-012-024-CTZ003-RIZ002-NYZ038-NYZ072-261000-
SOUTHERN NEW ENGLAND AND NY
  
CITY           SKY/WX    TMP DP  RH WIND       PRES   REMARKS
BOSTON         CLEAR     77  67  71 W9        29.78R                  
WORCESTER      CLEAR     69  65  86 W10       29.84R                  
NANTUCKET      CLEAR     71  69  93 W12       29.80R                  
PROVIDENCE     CLEAR     72  67  84 W7        29.82R                  
HARTFORD       CLEAR     68  65  90 CALM      29.83R                  
ALBANY         PTCLDY    66  64  93 CALM      29.85R                  
NEW YORK CITY  CLEAR     76  69  79 W9        29.86S                  
$$

ANZ081-ANZ082-ANZ150-NHZ014-MEZ023>029-261000-
COASTAL MARINE OBSERVATIONS
  
STATION/POSITION TIME  TEMP    WIND        PRES    WAVE
                       AIR SEA DIR/SP/G            HT/PER
                 (UTC) (F)     (DEG/KT/KT) (MB)    (FT/S)
MOUNT DESERT ROC 0900   63     180/  9/ 10 1006.6R
MATINICUS ROCK   0800   65     170/ 11/ 11 1006.0S
ISLE OF SHOALS   0800   73     250/ 11/ 11 1006.7R
JEFFREYS LEDGE   0808      68                N/A     3/ 5
CASHES LEDGE BUO 0750   70 70  210/ 10/ 12 1006.1    3/ 5
GEORGES BANK BUO 0750   68 65              1009.3    2/ 7
$$

.............KEY..............
   WCI - WIND CHILL
   TC  - TEMPERATURE IN CELSIUS
   VSB - VISIBILITY IN MILES
   HX  - HEAT INDEX
   FAIR- INDICATES FEW OR NO CLOUDS BELOW 12,000 FT, WITH NO 
         SIGNIFICANT WEATHER AND/OR OBSTRUCTIONS TO VISIBILITY.


  

Return to Home page


Western Regional Climate Center, wrcc@dri.edu